Location: ?????????
(54.7630°N, 39.4991°E)
Time: 08:48:42
(UTC+00:00)

USA 229 - Pass Details

Date: 14 April 2026
Orbit: 843 x 1365 km, 63.4° (Epoch: 10 January)

Event Time Altitude Azimuth Distance (km) Brightness Sun altitude
Rises 23:42:11 0° 311° (NW) 3,967 6.7 -19.2°
Reaches altitude 10° 23:44:54 10° 305° (NW) 3,078 6.1 -18.9°
Maximum altitude 23:51:48 42° 238° (WSW) 1,719 4.3 -18.3°
Drops below altitude 10° 23:59:21 10° 171° (S) 3,360 5.9 -17.6°
Sets 00:02:27 0° 165° (SSE) 4,363 6.6 -17.3°
